Torna al catalogo

STARLINK-3980

AttivoComunicazioniVLEO
NORAD 52611·PAYLOAD·🇺🇸 United States

Lanciato May 14, 2022 da Cape Canaveral Space Force Station

Loading…

Prossimi Passaggi (prossime 24 ore)

TLE

AggiornatoSource: CelesTrak SupGP

Epoca: Sep 14, 2026, 21:33 UTC

1 52611C 22052P   26257.89840278 -.00052971  00000+0 -15159-2 0  2579
2 52611  53.1567 142.7748 0001280  92.4936 167.6654 15.35418388    13

Traccia STARLINK-3980 in tempo reale con AllMySat

Download on the App Store